Location: Newport
(44.6370°N, 124.0520°W)
Time: 11:39:20
(UTC-08:00)

Vanguard 1 Rocket - Visible Passes

Search period start: 12 December 2017 00:00
Search period end: 22 December 2017 00:00
Orbit: 656 x 4222 km, 34.3° (Epoch: 11 December)

Date Brightness Start Highest point End Pass type
(mag) Time Alt. Az. Time Alt. Az. Time Alt. Az.
12 Dec 9.9 17:52:13 10° SW 18:02:40 50° SSE 18:18:37 16° E visible
12 Dec 10.1 20:16:25 10° WSW 20:31:03 60° S 20:35:54 53° SE visible
12 Dec 10.9 22:43:04 10° W 22:53:11 36° WSW 22:53:11 36° WSW visible
13 Dec11.901:52:34S01:52:34S01:10:28Wvisible
13 Dec 10.0 16:42:35 10° SSW 16:51:06 38° SSE 17:06:18 10° E visible
13 Dec 10.0 19:05:34 10° WSW 19:17:50 59° S 19:28:43 33° ESE visible
13 Dec 10.4 21:30:59 10° W 21:46:00 52° SSW 21:46:00 52° SSW visible
13 Dec 11.4 23:59:43 10° W 00:03:17 17° W 00:03:17 17° W visible
14 Dec 9.8 17:55:14 10° WSW 18:05:22 53° SSE 18:21:34 15° E visible
14 Dec 10.2 20:19:36 10° W 20:33:43 57° S 20:38:52 50° SSE visible
14 Dec 10.9 22:46:25 10° W 22:56:09 33° WSW 22:56:09 33° WSW visible
15 Dec 9.8 16:45:25 10° SW 16:53:43 42° SSE 17:08:59 10° E visible
15 Dec 9.9 19:08:44 10° WSW 19:20:37 58° S 19:31:47 31° ESE visible
15 Dec 10.5 21:34:14 10° W 21:49:05 47° SSW 21:49:05 47° SSW visible
16 Dec 11.5 00:03:46 10° W 00:06:23 14° W 00:06:23 14° W visible
16 Dec 9.8 17:58:19 10° WSW 18:08:09 54° S 18:24:46 14° ESE visible
16 Dec 10.2 20:22:49 10° W 20:36:27 53° SSW 20:42:05 45° SSE visible
16 Dec 11.0 22:49:58 10° W 22:59:22 29° WSW 22:59:22 29° WSW visible
17 Dec 9.7 16:48:23 10° SW 16:56:27 45° SSE 17:11:35 10° E visible
17 Dec 10.0 19:11:57 10° WSW 19:23:26 56° S 19:35:09 29° ESE visible
17 Dec 10.6 21:37:36 10° W 21:52:28 42° SSW 21:52:28 42° SSW visible
18 Dec 11.6 00:08:33 10° W 00:09:46 12° WSW 00:09:46 12° WSW visible
18 Dec 9.7 18:01:30 10° WSW 18:11:02 54° S 18:28:19 12° ESE visible
18 Dec 10.3 20:26:06 10° W 20:39:11 48° SSW 20:45:39 39° SSE visible
18 Dec 11.1 22:53:50 10° W 23:02:58 25° SW 23:02:58 25° SW visible
19 Dec 9.6 16:51:28 10° SW 16:59:19 47° SSE 17:14:10 10° E visible
19 Dec 10.0 19:15:13 10° W 19:26:18 52° S 19:38:56 25° SE visible
19 Dec 10.8 21:41:08 10° W 21:55:04 35° SSW 21:56:17 35° SSW visible
20 Dec 9.7 18:04:45 10° WSW 18:13:58 53° S 18:31:39 10° ESE visible
20 Dec 10.4 20:29:30 10° W 20:41:56 42° SSW 20:49:44 33° SSE visible
20 Dec 11.3 22:58:15 10° W 23:07:06 21° SW 23:07:06 21° SW visible
21 Dec 9.5 16:54:38 10° WSW 17:02:15 48° S 17:16:42 10° ESE visible
21 Dec 10.1 19:18:32 10° W 19:29:11 47° SSW 19:43:23 19° SE visible
21 Dec 10.9 21:44:56 10° W 21:57:42 29° SSW 22:00:46 28° SSW visible
